SAS89L EKCH-EDDS

Flight info

Callsign SAS89L
Flight time N/A
Altitude 23000
Route NEXEN T503 MICOS Z990 RAMAR/N0444F370 Z990 HLZ/N0453F310 M852 POVEL/N0444F380 DCT UPDAT DCT BERXO/N0442F390 DCT SILWE DCT OSBIT P605 TOSTU T726 LBU
Aircraft A20N/M-SDE2E3FGHIRWXY/LB1

Departure

Time 2026-04-25 20:56
Airport Copenhagen Kastrup Airport (EKCH)

Arrival

Time N/A
Airport Stuttgart Airport (EDDS)
Time Latitude Longitude Altitude Speed Heading
2026-04-25 20:26 55.62555 12.64901 18 ft 0 kts 89°
2026-04-25 20:41 55.62555 12.64884 19 ft 2 kts 89°
2026-04-25 20:41 55.62554 12.64858 19 ft 2 kts 90°
2026-04-25 20:42 55.62554 12.64832 19 ft 2 kts 89°
2026-04-25 20:42 55.62557 12.64805 19 ft 2 kts 118°
2026-04-25 20:42 55.62565 12.64784 19 ft 2 kts 142°
2026-04-25 20:42 55.62579 12.64771 18 ft 2 kts 167°
2026-04-25 20:43 55.62587 12.64769 19 ft 1 kts 182°
2026-04-25 20:43 55.62592 12.64770 19 ft 0 kts 180°
2026-04-25 20:46 55.62587 12.64770 18 ft 1 kts 180°
2026-04-25 20:46 55.62559 12.64770 18 ft 6 kts 180°
2026-04-25 20:47 55.62491 12.64772 18 ft 12 kts 179°
2026-04-25 20:47 55.62416 12.64778 17 ft 0 kts 177°
2026-04-25 20:47 55.62403 12.64779 17 ft 4 kts 177°
2026-04-25 20:47 55.62362 12.64783 16 ft 7 kts 178°
2026-04-25 20:48 55.62298 12.64788 15 ft 10 kts 178°
2026-04-25 20:48 55.62223 12.64783 15 ft 8 kts 206°
2026-04-25 20:48 55.62219 12.64779 15 ft 0 kts 208°
2026-04-25 20:49 55.62217 12.64778 15 ft 1 kts 208°
2026-04-25 20:50 55.62201 12.64762 15 ft 5 kts 208°
2026-04-25 20:50 55.62141 12.64696 15 ft 11 kts 215°
2026-04-25 20:50 55.62072 12.64612 15 ft 12 kts 213°
2026-04-25 20:50 55.61925 12.64499 15 ft 30 kts 187°
2026-04-25 20:51 55.61753 12.64555 15 ft 18 kts 170°
2026-04-25 20:51 55.61672 12.64559 15 ft 10 kts 204°
2026-04-25 20:51 55.61558 12.64431 15 ft 25 kts 214°
2026-04-25 20:51 55.61411 12.64262 17 ft 24 kts 213°
2026-04-25 20:52 55.61270 12.64101 16 ft 23 kts 214°
2026-04-25 20:52 55.61179 12.63996 15 ft 23 kts 213°
2026-04-25 20:52 55.60999 12.63789 16 ft 23 kts 213°
2026-04-25 20:52 55.60867 12.63638 15 ft 23 kts 214°
2026-04-25 20:53 55.60733 12.63483 15 ft 22 kts 214°
2026-04-25 20:53 55.60606 12.63321 14 ft 23 kts 223°
2026-04-25 20:53 55.60492 12.63141 15 ft 19 kts 221°
2026-04-25 20:53 55.60400 12.63152 13 ft 9 kts 132°
2026-04-25 20:54 55.60396 12.63159 13 ft 0 kts 131°
2026-04-25 20:55 55.60396 12.63160 13 ft 0 kts 131°
2026-04-25 20:55 55.60361 12.63230 12 ft 16 kts 131°
2026-04-25 20:55 55.60362 12.63390 12 ft 14 kts 32°
2026-04-25 20:55 55.60440 12.63507 12 ft 18 kts 41°
2026-04-25 20:56 55.60625 12.63789 15 ft 69 kts 41°
2026-04-25 20:56 55.61198 12.64681 17 ft 146 kts 39°
2026-04-25 20:56 55.62040 12.66006 480 ft 171 kts 38°
2026-04-25 20:56 55.62902 12.67328 1548 ft 164 kts 36°
2026-04-25 20:57 55.63711 12.68608 2462 ft 161 kts 36°
2026-04-25 20:57 55.64582 12.69961 3028 ft 177 kts 36°
2026-04-25 20:57 55.65550 12.71421 3579 ft 194 kts 36°
2026-04-25 20:57 55.66624 12.73025 4169 ft 213 kts 35°
2026-04-25 20:58 55.67812 12.74788 4812 ft 231 kts 35°
2026-04-25 20:58 55.69065 12.76654 5542 ft 243 kts 38°
2026-04-25 20:58 55.70065 12.79063 6433 ft 259 kts 62°
2026-04-25 20:58 55.70374 12.82278 7341 ft 277 kts 88°
2026-04-25 20:59 55.69807 12.85579 8196 ft 295 kts 117°
2026-04-25 20:59 55.68365 12.88184 9054 ft 307 kts 148°
2026-04-25 20:59 55.66349 12.89293 9883 ft 312 kts 181°
2026-04-25 20:59 55.64268 12.88488 10559 ft 309 kts 214°
2026-04-25 21:00 55.62526 12.86245 11075 ft 317 kts 227°
2026-04-25 21:00 55.61969 12.85384 11211 ft 322 kts 228°
2026-04-25 21:00 55.57198 12.77900 12303 ft 369 kts 228°
2026-04-25 21:01 55.55199 12.74897 12735 ft 385 kts 228°
2026-04-25 21:01 55.53126 12.71831 13307 ft 394 kts 228°
2026-04-25 21:01 55.51014 12.68743 13991 ft 398 kts 229°
2026-04-25 21:01 55.48846 12.65597 14572 ft 404 kts 229°
2026-04-25 21:02 55.46669 12.62443 15144 ft 410 kts 229°
2026-04-25 21:02 55.44472 12.59266 15768 ft 415 kts 230°
2026-04-25 21:02 55.42232 12.56037 16438 ft 418 kts 231°
2026-04-25 21:02 55.39994 12.52814 17046 ft 422 kts 231°
2026-04-25 21:03 55.37728 12.49548 17638 ft 427 kts 232°
2026-04-25 21:03 55.35405 12.46198 18128 ft 434 kts 232°
2026-04-25 21:03 55.33059 12.42830 18704 ft 437 kts 233°
2026-04-25 21:03 55.30729 12.39494 19390 ft 437 kts 233°
2026-04-25 21:04 55.28383 12.36128 19842 ft 443 kts 233°
2026-04-25 21:04 55.25984 12.32682 20275 ft 450 kts 232°
2026-04-25 21:04 55.23560 12.29215 20868 ft 453 kts 232°
2026-04-25 21:04 55.21126 12.25747 21404 ft 456 kts 232°
2026-04-25 21:05 55.18640 12.22207 21832 ft 462 kts 232°
2026-04-25 21:05 55.16153 12.18667 22344 ft 465 kts 232°
2026-04-25 21:05 55.13656 12.15128 22784 ft 470 kts 232°
2026-04-25 21:05 55.11096 12.11501 22963 ft 472 kts 232°
2026-04-25 21:06 55.08556 12.07923 22970 ft 470 kts 232°
2026-04-25 21:06 55.06019 12.04355 22966 ft 469 kts 232°
2026-04-25 21:06 55.03487 12.00787 22971 ft 472 kts 232°
2026-04-25 21:06 55.01788 11.98399 22969 ft 470 kts 232°
2026-04-25 21:07 54.98414 11.93665 22971 ft 469 kts 232°
2026-04-25 21:07 54.95886 11.90125 22969 ft 469 kts 231°
2026-04-25 21:07 54.93361 11.86583 22976 ft 469 kts 231°
2026-04-25 21:07 54.90823 11.83033 22977 ft 472 kts 231°
2026-04-25 21:08 54.88256 11.79462 22975 ft 469 kts 231°
2026-04-25 21:08 54.85721 11.75930 22979 ft 471 kts 231°
2026-04-25 21:08 54.83190 11.72422 22986 ft 467 kts 231°
2026-04-25 21:08 54.80677 11.68939 22992 ft 466 kts 231°
2026-04-25 21:09 54.75604 11.61913 22988 ft 465 kts 231°
2026-04-25 21:09 54.73116 11.58471 22991 ft 465 kts 231°
2026-04-25 21:09 54.70568 11.54957 23002 ft 464 kts 231°
2026-04-25 21:10 54.68051 11.51497 23012 ft 464 kts 231°
2026-04-25 21:10 54.65533 11.48042 23003 ft 463 kts 231°
2026-04-25 21:10 54.63051 11.44636 23006 ft 465 kts 231°
2026-04-25 21:10 54.60533 11.41186 23012 ft 461 kts 231°
2026-04-25 21:11 54.57999 11.37718 23019 ft 464 kts 230°
2026-04-25 21:11 54.55471 11.34271 23016 ft 463 kts 230°
2026-04-25 21:11 54.52947 11.30830 23016 ft 465 kts 230°
2026-04-25 21:11 54.50415 11.27387 23019 ft 462 kts 230°
2026-04-25 21:12 54.47893 11.23955 23022 ft 464 kts 229°
2026-04-25 21:12 54.45368 11.20533 23026 ft 463 kts 229°
2026-04-25 21:12 54.42838 11.17113 23032 ft 463 kts 229°
2026-04-25 21:12 54.41161 11.14844 23032 ft 464 kts 229°
2026-04-25 21:13 54.37814 11.10328 23033 ft 463 kts 229°
2026-04-25 21:13 54.35261 11.06878 23037 ft 476 kts 229°
2026-04-25 21:13 54.32478 11.03474 23026 ft 502 kts 219°
2026-04-25 21:13 54.29272 11.01011 23034 ft 522 kts 206°
2026-04-25 21:14 54.25678 10.99705 23037 ft 538 kts 192°
2026-04-25 21:14 54.21918 10.99251 23046 ft 540 kts 188°
2026-04-25 21:14 54.18174 10.98988 23047 ft 540 kts 188°
2026-04-25 21:14 54.14454 10.98704 23048 ft 540 kts 188°
2026-04-25 21:15 54.10742 10.98344 23051 ft 538 kts 189°
2026-04-25 21:15 54.06976 10.97933 23053 ft 536 kts 190°
2026-04-25 21:15 54.03278 10.97506 23055 ft 536 kts 190°
2026-04-25 21:15 53.99593 10.97081 23058 ft 536 kts 190°
2026-04-25 21:16 53.95886 10.96661 23058 ft 537 kts 190°
2026-04-25 21:16 53.92136 10.96238 23061 ft 536 kts 189°
2026-04-25 21:16 53.88434 10.95826 23059 ft 535 kts 190°
2026-04-25 21:16 53.84728 10.95414 23060 ft 535 kts 189°
2026-04-25 21:17 53.81043 10.95008 23067 ft 534 kts 189°
2026-04-25 21:17 53.77355 10.94601 23068 ft 535 kts 189°
2026-04-25 21:17 53.73649 10.94191 23061 ft 535 kts 189°
2026-04-25 21:17 53.69949 10.93785 23067 ft 534 kts 189°
2026-04-25 21:18 53.66256 10.93384 23071 ft 532 kts 189°
2026-04-25 21:18 53.62547 10.92979 23070 ft 532 kts 189°